LAN225 SCFA-SPJC

Flight info

Callsign LAN225
Flight time 2h 8m
Altitude 40000
Route BRADA4J BRADA DCT ALDAX UL550 SCO
Aircraft A359/H-SDE2E3GHIJ3J4J5LM1ORWXY/LB1D1

Departure

Time 2026-04-22 20:01
Airport Andrés Sabella Gálvez International Airport (SCFA)

Arrival

Time 2026-04-22 22:09
Airport Jorge Chávez International Airport (SPJC)
Time Latitude Longitude Altitude Speed Heading
2026-04-22 19:25 -23.44967 -70.44208 468 ft 0 kts 97°
2026-04-22 19:53 -23.44968 -70.44206 468 ft 0 kts 97°
2026-04-22 19:53 -23.44968 -70.44205 468 ft 0 kts 97°
2026-04-22 19:54 -23.44968 -70.44204 468 ft 0 kts 97°
2026-04-22 19:54 -23.44966 -70.44221 463 ft 2 kts 97°
2026-04-22 19:54 -23.44967 -70.44240 465 ft 3 kts 60°
2026-04-22 19:54 -23.44979 -70.44255 465 ft 2 kts 23°
2026-04-22 19:55 -23.44979 -70.44256 465 ft 0 kts 23°
2026-04-22 19:57 -23.44978 -70.44255 465 ft 1 kts 21°
2026-04-22 19:57 -23.44915 -70.44258 465 ft 15 kts 353°
2026-04-22 19:57 -23.44807 -70.44279 464 ft 17 kts 343°
2026-04-22 19:57 -23.44687 -70.44317 465 ft 19 kts 342°
2026-04-22 19:58 -23.44547 -70.44330 466 ft 22 kts
2026-04-22 19:58 -23.44388 -70.44314 463 ft 24 kts
2026-04-22 19:58 -23.44215 -70.44293 465 ft 26 kts
2026-04-22 19:58 -23.44026 -70.44270 465 ft 28 kts
2026-04-22 19:59 -23.43822 -70.44245 467 ft 30 kts
2026-04-22 20:00 -23.43569 -70.44402 466 ft 69 kts 187°
2026-04-22 20:00 -23.44281 -70.44488 463 ft 135 kts 187°
2026-04-22 20:01 -23.45337 -70.44621 870 ft 157 kts 186°
2026-04-22 20:01 -23.46412 -70.44757 1703 ft 154 kts 188°
2026-04-22 20:01 -23.47510 -70.44881 2103 ft 167 kts 189°
2026-04-22 20:01 -23.48732 -70.45025 2341 ft 189 kts 188°
2026-04-22 20:02 -23.50122 -70.45188 2524 ft 212 kts 188°
2026-04-22 20:02 -23.51646 -70.45366 2822 ft 230 kts 188°
2026-04-22 20:02 -23.53311 -70.45574 3101 ft 249 kts 191°
2026-04-22 20:02 -23.54914 -70.46300 3614 ft 253 kts 216°
2026-04-22 20:03 -23.56240 -70.47570 4177 ft 257 kts 237°
2026-04-22 20:03 -23.56743 -70.49394 4772 ft 260 kts 272°
2026-04-22 20:03 -23.56140 -70.51255 5309 ft 269 kts 307°
2026-04-22 20:03 -23.54612 -70.52439 5825 ft 278 kts 341°
2026-04-22 20:04 -23.52715 -70.52959 6317 ft 284 kts 345°
2026-04-22 20:04 -23.50842 -70.53696 6836 ft 286 kts 334°
2026-04-22 20:04 -23.49085 -70.54739 7397 ft 288 kts 328°
2026-04-22 20:04 -23.47423 -70.55960 7971 ft 289 kts 324°
2026-04-22 20:05 -23.45712 -70.57075 8523 ft 291 kts 338°
2026-04-22 20:05 -23.43753 -70.57598 9110 ft 292 kts 355°
2026-04-22 20:05 -23.41719 -70.57809 9639 ft 294 kts 357°
2026-04-22 20:05 -23.39670 -70.57995 10214 ft 296 kts 356°
2026-04-22 20:06 -23.37572 -70.58199 10480 ft 309 kts 356°
2026-04-22 20:06 -23.35375 -70.58426 10684 ft 323 kts 356°
2026-04-22 20:06 -23.33093 -70.58669 10884 ft 336 kts 355°
2026-04-22 20:06 -23.30720 -70.58926 11081 ft 348 kts 355°
2026-04-22 20:07 -23.28287 -70.59195 11389 ft 354 kts 354°
2026-04-22 20:07 -23.25821 -70.59468 11845 ft 357 kts 354°
2026-04-22 20:07 -23.23387 -70.59738 12334 ft 357 kts 353°
2026-04-22 20:07 -23.20919 -70.60012 12880 ft 356 kts 353°
2026-04-22 20:08 -23.18440 -70.60288 13297 ft 360 kts 353°
2026-04-22 20:08 -23.15936 -70.60561 13692 ft 363 kts 353°
2026-04-22 20:08 -23.13416 -70.60836 14098 ft 364 kts 353°
2026-04-22 20:08 -23.10892 -70.61113 14559 ft 363 kts 353°
2026-04-22 20:09 -23.08365 -70.61390 14937 ft 365 kts 353°
2026-04-22 20:09 -23.05826 -70.61670 15329 ft 367 kts 353°
2026-04-22 20:09 -23.03274 -70.61952 15681 ft 369 kts 353°
2026-04-22 20:09 -23.00705 -70.62236 16048 ft 372 kts 353°
2026-04-22 20:10 -22.98122 -70.62521 16420 ft 373 kts 353°
2026-04-22 20:10 -22.95533 -70.62807 16804 ft 375 kts 353°
2026-04-22 20:10 -22.92928 -70.63095 17174 ft 377 kts 353°
2026-04-22 20:10 -22.90351 -70.63379 17540 ft 378 kts 353°
2026-04-22 20:11 -22.87721 -70.63669 17908 ft 380 kts 353°
2026-04-22 20:11 -22.85081 -70.63960 18266 ft 382 kts 353°
2026-04-22 20:11 -22.82434 -70.64251 18578 ft 383 kts 353°
2026-04-22 20:11 -22.79781 -70.64544 18886 ft 384 kts 352°
2026-04-22 20:12 -22.76827 -70.64869 19231 ft 385 kts 352°
2026-04-22 20:12 -22.74155 -70.65163 19547 ft 387 kts 352°
2026-04-22 20:12 -22.72377 -70.65358 19750 ft 387 kts 352°
2026-04-22 20:12 -22.68784 -70.65754 20171 ft 389 kts 352°
2026-04-22 20:13 -22.66089 -70.66050 20465 ft 390 kts 352°
2026-04-22 20:13 -22.63414 -70.66344 20768 ft 391 kts 352°
2026-04-22 20:13 -22.60665 -70.66645 21075 ft 393 kts 352°
2026-04-22 20:13 -22.57945 -70.66944 21381 ft 394 kts 352°
2026-04-22 20:14 -22.55214 -70.67244 21670 ft 395 kts 352°
2026-04-22 20:14 -22.52502 -70.67541 21914 ft 397 kts 352°
2026-04-22 20:14 -22.49740 -70.67844 22175 ft 399 kts 352°
2026-04-22 20:14 -22.46974 -70.68148 22456 ft 400 kts 352°
2026-04-22 20:15 -22.44201 -70.68451 22739 ft 401 kts 351°
2026-04-22 20:15 -22.41418 -70.68756 23010 ft 403 kts 351°
2026-04-22 20:15 -22.38621 -70.69062 23280 ft 404 kts 351°
2026-04-22 20:15 -22.35812 -70.69369 23541 ft 405 kts 351°
2026-04-22 20:16 -22.32999 -70.69677 23779 ft 407 kts 351°
2026-04-22 20:16 -22.30179 -70.69985 24007 ft 408 kts 351°
2026-04-22 20:16 -22.27383 -70.70291 24236 ft 409 kts 351°
2026-04-22 20:16 -22.24544 -70.70601 24466 ft 409 kts 351°
2026-04-22 20:17 -22.21703 -70.70912 24633 ft 412 kts 351°
2026-04-22 20:17 -22.18847 -70.71224 24848 ft 413 kts 351°
2026-04-22 20:17 -22.15982 -70.71536 25081 ft 413 kts 351°
2026-04-22 20:17 -22.13118 -70.71848 25314 ft 414 kts 351°
2026-04-22 20:18 -22.10250 -70.72161 25554 ft 415 kts 351°
2026-04-22 20:18 -22.07367 -70.72475 25782 ft 416 kts 351°
2026-04-22 20:18 -22.04520 -70.72785 26012 ft 417 kts 351°
2026-04-22 20:18 -22.01631 -70.73100 26248 ft 418 kts 351°
2026-04-22 20:19 -21.98735 -70.73415 26487 ft 419 kts 351°
2026-04-22 20:19 -21.95830 -70.73731 26730 ft 419 kts 351°
2026-04-22 20:19 -21.92923 -70.74057 26948 ft 420 kts 350°
2026-04-22 20:19 -21.90045 -70.74576 27146 ft 419 kts 344°
2026-04-22 20:20 -21.87261 -70.75481 27388 ft 417 kts 337°
2026-04-22 20:20 -21.84572 -70.76652 27658 ft 416 kts 335°
2026-04-22 20:20 -21.81922 -70.77919 27920 ft 416 kts 333°
2026-04-22 20:20 -21.79290 -70.79237 28175 ft 417 kts 333°
2026-04-22 20:21 -21.76689 -70.80562 28421 ft 418 kts 333°
2026-04-22 20:21 -21.74053 -70.81906 28690 ft 419 kts 333°
2026-04-22 20:21 -21.71413 -70.83245 28948 ft 420 kts 333°
2026-04-22 20:21 -21.68763 -70.84579 29200 ft 421 kts 333°
2026-04-22 20:22 -21.66100 -70.85913 29450 ft 423 kts 333°
2026-04-22 20:22 -21.63420 -70.87251 29702 ft 424 kts 333°
2026-04-22 20:22 -21.60740 -70.88586 29923 ft 426 kts 333°
2026-04-22 20:22 -21.58044 -70.89927 30200 ft 427 kts 333°
2026-04-22 20:23 -21.55343 -70.91271 30435 ft 428 kts 333°
2026-04-22 20:23 -21.52639 -70.92615 30667 ft 429 kts 333°
2026-04-22 20:23 -21.49961 -70.93947 30904 ft 430 kts 333°
2026-04-22 20:23 -21.47242 -70.95298 31149 ft 431 kts 333°
2026-04-22 20:24 -21.44508 -70.96657 31387 ft 432 kts 333°
2026-04-22 20:24 -21.41776 -70.98014 31624 ft 433 kts 333°
2026-04-22 20:24 -21.39963 -70.98914 31776 ft 434 kts 333°
2026-04-22 20:24 -21.37209 -71.00281 32008 ft 435 kts 333°
2026-04-22 20:25 -21.34456 -71.01647 32194 ft 436 kts 333°
2026-04-22 20:25 -21.31689 -71.03020 32345 ft 440 kts 333°
2026-04-22 20:25 -21.28908 -71.04399 32524 ft 441 kts 333°
2026-04-22 20:25 -21.25207 -71.06233 32807 ft 442 kts 333°
2026-04-22 20:26 -21.23321 -71.07167 32945 ft 443 kts 332°
2026-04-22 20:26 -21.20517 -71.08555 33141 ft 444 kts 332°
2026-04-22 20:26 -21.17713 -71.09943 33334 ft 445 kts 332°
2026-04-22 20:26 -21.14894 -71.11337 33522 ft 446 kts 332°
2026-04-22 20:27 -21.12070 -71.12734 33716 ft 447 kts 332°
2026-04-22 20:27 -21.09239 -71.14133 33896 ft 448 kts 332°
2026-04-22 20:27 -21.06445 -71.15513 34141 ft 448 kts 332°
2026-04-22 20:27 -21.03617 -71.16909 34413 ft 446 kts 332°
2026-04-22 20:28 -21.00799 -71.18298 34680 ft 445 kts 333°
2026-04-22 20:28 -20.97989 -71.19684 34958 ft 444 kts 333°
2026-04-22 20:28 -20.95183 -71.21067 35239 ft 443 kts 333°
2026-04-22 20:28 -20.92387 -71.22444 35513 ft 441 kts 333°
2026-04-22 20:29 -20.89599 -71.23819 35806 ft 440 kts 333°
2026-04-22 20:29 -20.86813 -71.25192 36084 ft 439 kts 333°
2026-04-22 20:29 -20.84040 -71.26559 36359 ft 438 kts 333°
2026-04-22 20:29 -20.81272 -71.27923 36634 ft 437 kts 333°
2026-04-22 20:30 -20.78507 -71.29285 36919 ft 436 kts 334°
2026-04-22 20:30 -20.75788 -71.30624 37196 ft 435 kts 334°
2026-04-22 20:30 -20.73027 -71.31987 38562 ft 438 kts 336°
2026-04-22 20:30 -20.70241 -71.33366 38321 ft 445 kts 336°
2026-04-22 20:31 -20.67425 -71.34761 38217 ft 448 kts 336°
2026-04-22 20:31 -20.61753 -71.37558 38197 ft 449 kts 336°
2026-04-22 20:32 -20.56057 -71.40355 38211 ft 450 kts 336°
2026-04-22 20:32 -20.50354 -71.43149 38224 ft 451 kts 336°
2026-04-22 20:33 -20.44675 -71.45929 38237 ft 452 kts 336°
2026-04-22 20:33 -20.38951 -71.48730 38250 ft 453 kts 336°
2026-04-22 20:34 -20.33214 -71.51535 38262 ft 454 kts 336°
2026-04-22 20:34 -20.27468 -71.54343 38273 ft 454 kts 336°
2026-04-22 20:35 -20.21719 -71.57149 38285 ft 455 kts 336°
2026-04-22 20:35 -20.15954 -71.59961 38296 ft 456 kts 336°
2026-04-22 20:36 -20.10180 -71.62776 38307 ft 457 kts 336°
2026-04-22 20:36 -20.04433 -71.65574 38317 ft 457 kts 336°
2026-04-22 20:37 -19.98638 -71.68394 38327 ft 458 kts 336°
2026-04-22 20:37 -19.92830 -71.71217 38336 ft 459 kts 336°
2026-04-22 20:38 -19.87021 -71.74039 38346 ft 459 kts 336°
2026-04-22 20:38 -19.81198 -71.76866 38355 ft 460 kts 336°
2026-04-22 20:39 -19.75405 -71.79675 38363 ft 460 kts 336°
2026-04-22 20:39 -19.69564 -71.82505 38372 ft 461 kts 336°
2026-04-22 20:40 -19.63726 -71.85332 38380 ft 462 kts 336°
2026-04-22 20:40 -19.57878 -71.88162 38389 ft 462 kts 336°
2026-04-22 20:41 -19.52009 -71.90999 38396 ft 463 kts 336°
2026-04-22 20:41 -19.46179 -71.93815 38403 ft 463 kts 336°
2026-04-22 20:42 -19.40297 -71.96654 38410 ft 464 kts 336°
2026-04-22 20:42 -19.37372 -71.98065 38630 ft 458 kts 336°
2026-04-22 20:42 -19.34518 -71.99443 39150 ft 445 kts 336°
2026-04-22 20:42 -19.31730 -72.00790 39526 ft 436 kts 336°
2026-04-22 20:43 -19.28977 -72.02119 39697 ft 432 kts 336°
2026-04-22 20:43 -19.23524 -72.04750 39752 ft 430 kts 336°
2026-04-22 20:44 -19.18106 -72.07359 39737 ft 430 kts 336°
2026-04-22 20:44 -19.12655 -72.09981 39731 ft 430 kts 336°
2026-04-22 20:45 -19.07204 -72.12598 39826 ft 426 kts 336°
2026-04-22 20:45 -19.04508 -72.13816 40196 ft 416 kts 339°
2026-04-22 20:45 -19.01865 -72.15026 40304 ft 413 kts 336°
2026-04-22 20:45 -18.99233 -72.16302 40110 ft 418 kts 335°
2026-04-22 20:46 -18.93936 -72.18922 39999 ft 420 kts 335°
2026-04-22 20:46 -18.88663 -72.21495 40000 ft 420 kts 336°
2026-04-22 20:47 -18.83351 -72.24050 40000 ft 419 kts 336°
2026-04-22 20:47 -18.78037 -72.26592 40000 ft 418 kts 336°
2026-04-22 20:48 -18.72736 -72.29125 40000 ft 418 kts 336°
2026-04-22 20:48 -18.67442 -72.31655 40000 ft 417 kts 336°
2026-04-22 20:49 -18.62159 -72.34179 40000 ft 416 kts 336°
2026-04-22 20:49 -18.56914 -72.36683 40000 ft 416 kts 336°
2026-04-22 20:50 -18.51650 -72.39194 40000 ft 415 kts 336°
2026-04-22 20:50 -18.46386 -72.41704 40000 ft 414 kts 336°
2026-04-22 20:51 -18.41135 -72.44206 40000 ft 414 kts 336°
2026-04-22 20:51 -18.35938 -72.46805 39998 ft 413 kts 330°
2026-04-22 20:52 -18.31268 -72.50217 40002 ft 411 kts 323°
2026-04-22 20:52 -18.26769 -72.53938 40000 ft 411 kts 322°
2026-04-22 20:53 -18.22317 -72.57695 40000 ft 410 kts 322°
2026-04-22 20:53 -18.17862 -72.61441 40000 ft 409 kts 322°
2026-04-22 20:54 -18.13404 -72.65170 40000 ft 408 kts 322°
2026-04-22 20:54 -18.08979 -72.68862 40000 ft 408 kts 322°
2026-04-22 20:55 -18.04533 -72.72569 40000 ft 407 kts 322°
2026-04-22 20:55 -18.00096 -72.76266 40000 ft 406 kts 322°
2026-04-22 20:56 -17.95670 -72.79953 40000 ft 406 kts 322°
2026-04-22 20:56 -17.91275 -72.83611 40000 ft 405 kts 322°
2026-04-22 20:57 -17.86858 -72.87285 40000 ft 404 kts 322°
2026-04-22 20:57 -17.82451 -72.90948 40000 ft 403 kts 322°
2026-04-22 20:58 -17.78053 -72.94602 40000 ft 403 kts 322°
2026-04-22 20:58 -17.73688 -72.98226 40000 ft 402 kts 322°
2026-04-22 20:59 -17.69305 -73.01862 40000 ft 401 kts 322°
2026-04-22 20:59 -17.64925 -73.05494 40000 ft 401 kts 322°
2026-04-22 21:00 -17.60552 -73.09118 40000 ft 400 kts 322°
2026-04-22 21:00 -17.56187 -73.12732 40000 ft 399 kts 322°
2026-04-22 21:01 -17.51832 -73.16335 40000 ft 398 kts 322°
2026-04-22 21:01 -17.47486 -73.19930 40000 ft 397 kts 322°
2026-04-22 21:02 -17.43152 -73.23513 40000 ft 397 kts 322°
2026-04-22 21:02 -17.38822 -73.27089 40000 ft 396 kts 322°
2026-04-22 21:03 -17.34523 -73.30638 40000 ft 395 kts 322°
2026-04-22 21:03 -17.30203 -73.34202 40000 ft 394 kts 322°
2026-04-22 21:04 -17.25902 -73.37748 40000 ft 393 kts 322°
2026-04-22 21:04 -17.21602 -73.41291 40000 ft 392 kts 322°
2026-04-22 21:05 -17.17316 -73.44820 40000 ft 391 kts 322°
2026-04-22 21:05 -17.13042 -73.48337 40000 ft 390 kts 322°
2026-04-22 21:06 -17.08802 -73.51825 40000 ft 390 kts 322°
2026-04-22 21:06 -17.04544 -73.55330 40000 ft 389 kts 322°
2026-04-22 21:07 -17.00309 -73.58836 40000 ft 388 kts 322°
2026-04-22 21:07 -16.96073 -73.62335 40000 ft 387 kts 322°
2026-04-22 21:08 -16.91844 -73.65809 40000 ft 386 kts 322°
2026-04-22 21:08 -16.87614 -73.69274 40000 ft 386 kts 322°
2026-04-22 21:09 -16.83418 -73.72709 40000 ft 385 kts 322°
2026-04-22 21:09 -16.79181 -73.76179 40001 ft 384 kts 322°
2026-04-22 21:10 -16.75007 -73.79595 40000 ft 383 kts 322°
2026-04-22 21:10 -16.70811 -73.83028 40000 ft 382 kts 322°
2026-04-22 21:11 -16.66627 -73.86450 40000 ft 381 kts 322°
2026-04-22 21:11 -16.62458 -73.89857 40000 ft 380 kts 322°
2026-04-22 21:12 -16.58995 -73.92684 40000 ft 379 kts 322°
2026-04-22 21:12 -16.54170 -73.96623 40000 ft 378 kts 322°
2026-04-22 21:13 -16.50724 -73.99433 40000 ft 377 kts 322°
2026-04-22 21:13 -16.46596 -74.02796 40001 ft 376 kts 322°
2026-04-22 21:14 -16.42468 -74.06159 39999 ft 375 kts 322°
2026-04-22 21:14 -16.38381 -74.09486 40001 ft 373 kts 322°
2026-04-22 21:15 -16.34295 -74.12807 40000 ft 372 kts 322°
2026-04-22 21:15 -16.30212 -74.16129 39999 ft 371 kts 322°
2026-04-22 21:16 -16.26142 -74.19437 39957 ft 370 kts 322°
2026-04-22 21:16 -16.24104 -74.21093 39824 ft 375 kts 322°
2026-04-22 21:16 -16.22040 -74.22769 39453 ft 386 kts 322°
2026-04-22 21:17 -16.19886 -74.24517 39100 ft 396 kts 322°
2026-04-22 21:17 -16.17698 -74.26292 39000 ft 400 kts 322°
2026-04-22 21:17 -16.13279 -74.29875 38999 ft 404 kts 322°
2026-04-22 21:18 -16.08825 -74.33485 39000 ft 408 kts 322°
2026-04-22 21:18 -16.04343 -74.37117 38999 ft 412 kts 322°
2026-04-22 21:19 -15.99797 -74.40799 38999 ft 416 kts 322°
2026-04-22 21:19 -15.95211 -74.44510 38999 ft 419 kts 322°
2026-04-22 21:20 -15.90585 -74.48253 38999 ft 423 kts 322°
2026-04-22 21:20 -15.85913 -74.52028 38999 ft 427 kts 322°
2026-04-22 21:21 -15.81206 -74.55826 38999 ft 430 kts 322°
2026-04-22 21:21 -15.76455 -74.59663 38999 ft 434 kts 322°
2026-04-22 21:22 -15.71669 -74.63528 38999 ft 437 kts 322°
2026-04-22 21:22 -15.66876 -74.67395 38999 ft 441 kts 322°
2026-04-22 21:23 -15.62017 -74.71312 38999 ft 444 kts 322°
2026-04-22 21:23 -15.57112 -74.75264 38999 ft 447 kts 322°
2026-04-22 21:24 -15.52177 -74.79235 38999 ft 450 kts 322°
2026-04-22 21:24 -15.47229 -74.83214 38999 ft 453 kts 322°
2026-04-22 21:25 -15.42263 -74.87207 38999 ft 456 kts 322°
2026-04-22 21:25 -15.37235 -74.91240 38999 ft 458 kts 322°
2026-04-22 21:26 -15.32180 -74.95297 38999 ft 461 kts 322°
2026-04-22 21:26 -15.27095 -74.99380 38999 ft 464 kts 322°
2026-04-22 21:27 -15.21977 -75.03488 38999 ft 466 kts 322°
2026-04-22 21:27 -15.16835 -75.07609 38999 ft 468 kts 322°
2026-04-22 21:28 -15.11665 -75.11750 38999 ft 471 kts 322°
2026-04-22 21:28 -15.06465 -75.15912 38999 ft 473 kts 322°
2026-04-22 21:29 -15.01282 -75.20059 39000 ft 475 kts 322°
2026-04-22 21:29 -14.96026 -75.24261 38999 ft 477 kts 322°
2026-04-22 21:30 -14.90753 -75.28473 39000 ft 479 kts 322°
2026-04-22 21:30 -14.85468 -75.32693 39000 ft 481 kts 322°
2026-04-22 21:31 -14.80184 -75.36909 38999 ft 483 kts 322°
2026-04-22 21:31 -14.74852 -75.41161 39000 ft 485 kts 322°
2026-04-22 21:32 -14.69508 -75.45425 39000 ft 486 kts 322°
2026-04-22 21:32 -14.64136 -75.49704 39000 ft 488 kts 322°
2026-04-22 21:33 -14.58741 -75.53997 38999 ft 489 kts 322°
2026-04-22 21:33 -14.53372 -75.58269 39000 ft 491 kts 322°
2026-04-22 21:34 -14.47955 -75.62574 38999 ft 492 kts 322°
2026-04-22 21:34 -14.42507 -75.66902 39000 ft 493 kts 322°
2026-04-22 21:35 -14.37058 -75.71228 39000 ft 495 kts 322°
2026-04-22 21:35 -14.31586 -75.75567 39000 ft 496 kts 322°
2026-04-22 21:36 -14.26141 -75.79882 39000 ft 497 kts 322°
2026-04-22 21:36 -14.20660 -75.84225 39000 ft 498 kts 322°
2026-04-22 21:37 -14.15167 -75.88577 39000 ft 499 kts 322°
2026-04-22 21:37 -14.09658 -75.92940 39000 ft 499 kts 322°
2026-04-22 21:38 -14.04138 -75.97306 39000 ft 500 kts 322°
2026-04-22 21:38 -13.98635 -76.01658 39000 ft 501 kts 322°
2026-04-22 21:39 -13.93089 -76.06047 38999 ft 502 kts 322°
2026-04-22 21:39 -13.87540 -76.10422 39000 ft 503 kts 322°
2026-04-22 21:40 -13.81984 -76.14802 39000 ft 503 kts 322°
2026-04-22 21:40 -13.76408 -76.19202 39000 ft 504 kts 322°
2026-04-22 21:41 -13.70650 -76.23240 38999 ft 505 kts 328°
2026-04-22 21:41 -13.64704 -76.27079 38789 ft 501 kts 328°
2026-04-22 21:42 -13.61744 -76.28976 37931 ft 504 kts 328°
2026-04-22 21:42 -13.58747 -76.30894 36888 ft 511 kts 328°
2026-04-22 21:42 -13.55722 -76.32832 36086 ft 512 kts 328°
2026-04-22 21:42 -13.52685 -76.34773 35343 ft 515 kts 328°
2026-04-22 21:43 -13.49641 -76.36716 34559 ft 516 kts 328°
2026-04-22 21:43 -13.46586 -76.38665 33711 ft 517 kts 328°
2026-04-22 21:43 -13.43531 -76.40618 32845 ft 518 kts 328°
2026-04-22 21:43 -13.40469 -76.42575 31954 ft 519 kts 328°
2026-04-22 21:44 -13.37435 -76.44510 31039 ft 519 kts 328°
2026-04-22 21:44 -13.34377 -76.46462 30393 ft 513 kts 328°
2026-04-22 21:44 -13.31368 -76.48382 29800 ft 506 kts 328°
2026-04-22 21:44 -13.28390 -76.50281 29183 ft 500 kts 328°
2026-04-22 21:45 -13.25450 -76.52155 28570 ft 495 kts 328°
2026-04-22 21:45 -13.22535 -76.54012 27963 ft 490 kts 328°
2026-04-22 21:45 -13.19655 -76.55845 27364 ft 484 kts 328°
2026-04-22 21:45 -13.16807 -76.57657 26770 ft 479 kts 328°
2026-04-22 21:46 -13.13989 -76.59451 26181 ft 474 kts 328°
2026-04-22 21:46 -13.11201 -76.61224 25596 ft 469 kts 328°
2026-04-22 21:46 -13.08445 -76.62977 25017 ft 463 kts 328°
2026-04-22 21:46 -13.05751 -76.64689 24444 ft 459 kts 328°
2026-04-22 21:47 -13.03052 -76.66406 23868 ft 454 kts 328°
2026-04-22 21:47 -13.00380 -76.68104 23289 ft 449 kts 328°
2026-04-22 21:47 -12.97732 -76.69785 22712 ft 444 kts 328°
2026-04-22 21:47 -12.95121 -76.71444 22136 ft 440 kts 328°
2026-04-22 21:48 -12.92531 -76.73090 21560 ft 435 kts 328°
2026-04-22 21:48 -12.89971 -76.74715 20989 ft 430 kts 328°
2026-04-22 21:48 -12.87461 -76.76308 20419 ft 426 kts 328°
2026-04-22 21:48 -12.84953 -76.77900 19848 ft 422 kts 328°
2026-04-22 21:49 -12.82474 -76.79472 19274 ft 417 kts 328°
2026-04-22 21:49 -12.80011 -76.81032 18701 ft 413 kts 328°
2026-04-22 21:49 -12.77578 -76.82575 18132 ft 409 kts 328°
2026-04-22 21:49 -12.75175 -76.84097 17565 ft 404 kts 328°
2026-04-22 21:50 -12.72791 -76.85609 17002 ft 400 kts 328°
2026-04-22 21:50 -12.70463 -76.87083 16811 ft 385 kts 328°
2026-04-22 21:50 -12.68231 -76.88496 16701 ft 368 kts 328°
2026-04-22 21:50 -12.66100 -76.89845 16583 ft 353 kts 328°
2026-04-22 21:51 -12.64053 -76.91141 16434 ft 340 kts 328°
2026-04-22 21:51 -12.62078 -76.92391 16283 ft 327 kts 328°
2026-04-22 21:51 -12.60201 -76.93582 16138 ft 315 kts 328°
2026-04-22 21:52 -12.56453 -76.95789 15449 ft 309 kts 333°
2026-04-22 21:52 -12.54533 -76.96751 15132 ft 306 kts 334°
2026-04-22 21:52 -12.52615 -76.97702 14823 ft 305 kts 334°
2026-04-22 21:52 -12.50714 -76.98644 14516 ft 303 kts 334°
2026-04-22 21:53 -12.48820 -76.99584 14211 ft 301 kts 334°
2026-04-22 21:53 -12.46937 -77.00517 13907 ft 300 kts 334°
2026-04-22 21:53 -12.45067 -77.01444 13605 ft 298 kts 334°
2026-04-22 21:53 -12.43207 -77.02370 13305 ft 296 kts 334°
2026-04-22 21:54 -12.41356 -77.03293 13006 ft 295 kts 334°
2026-04-22 21:54 -12.39517 -77.04206 12709 ft 293 kts 334°
2026-04-22 21:54 -12.37686 -77.05117 12413 ft 292 kts 334°
2026-04-22 21:54 -12.35868 -77.06020 12119 ft 290 kts 334°
2026-04-22 21:55 -12.34078 -77.06909 11829 ft 289 kts 334°
2026-04-22 21:55 -12.32278 -77.07804 11538 ft 287 kts 334°
2026-04-22 21:55 -12.30482 -77.08696 11247 ft 286 kts 334°
2026-04-22 21:55 -12.28698 -77.09583 10958 ft 284 kts 334°
2026-04-22 21:56 -12.26926 -77.10463 10671 ft 283 kts 334°
2026-04-22 21:56 -12.25160 -77.11340 10385 ft 281 kts 334°
2026-04-22 21:56 -12.23402 -77.12213 10108 ft 281 kts 334°
2026-04-22 21:56 -12.21586 -77.13112 9998 ft 295 kts 334°
2026-04-22 21:57 -12.19722 -77.14035 9993 ft 300 kts 334°
2026-04-22 21:57 -12.17842 -77.14966 9998 ft 300 kts 334°
2026-04-22 21:57 -12.15969 -77.15897 9999 ft 294 kts 334°
2026-04-22 21:57 -12.14180 -77.16785 10007 ft 279 kts 334°
2026-04-22 21:58 -12.12447 -77.17644 10005 ft 276 kts 334°
2026-04-22 21:58 -12.10719 -77.18499 10001 ft 276 kts 334°
2026-04-22 21:58 -12.09045 -77.19332 9712 ft 266 kts 333°
2026-04-22 21:58 -12.07351 -77.20176 8903 ft 270 kts 334°
2026-04-22 21:59 -12.05672 -77.21009 8150 ft 272 kts 334°
2026-04-22 21:59 -12.03974 -77.21849 7481 ft 270 kts 334°
2026-04-22 21:59 -12.02313 -77.22670 7107 ft 262 kts 334°
2026-04-22 21:59 -12.00668 -77.23493 6836 ft 262 kts 333°
2026-04-22 22:00 -11.99044 -77.24339 6584 ft 261 kts 333°
2026-04-22 22:00 -11.97434 -77.25184 6337 ft 260 kts 333°
2026-04-22 22:00 -11.95823 -77.26027 6089 ft 259 kts 333°
2026-04-22 22:00 -11.94223 -77.26864 5844 ft 258 kts 333°
2026-04-22 22:01 -11.92625 -77.27699 5622 ft 259 kts 333°
2026-04-22 22:01 -11.91564 -77.28251 5446 ft 257 kts 333°
2026-04-22 22:01 -11.89444 -77.29300 5110 ft 254 kts 334°
2026-04-22 22:01 -11.87852 -77.30075 4867 ft 253 kts 334°
2026-04-22 22:02 -11.86270 -77.30782 4731 ft 243 kts 342°
2026-04-22 22:02 -11.84644 -77.30836 4613 ft 231 kts 17°
2026-04-22 22:02 -11.83710 -77.30334 4535 ft 223 kts 41°
2026-04-22 22:02 -11.82813 -77.29113 4401 ft 217 kts 63°
2026-04-22 22:03 -11.82151 -77.27727 4194 ft 218 kts 66°
2026-04-22 22:03 -11.81513 -77.26318 3998 ft 218 kts 66°
2026-04-22 22:03 -11.80963 -77.24894 3794 ft 216 kts 77°
2026-04-22 22:03 -11.81039 -77.23385 3598 ft 215 kts 112°
2026-04-22 22:04 -11.81943 -77.22203 3408 ft 212 kts 143°
2026-04-22 22:04 -11.83149 -77.21331 3206 ft 212 kts 148°
2026-04-22 22:04 -11.84331 -77.20453 3017 ft 213 kts 145°
2026-04-22 22:04 -11.85586 -77.19671 2828 ft 211 kts 154°
2026-04-22 22:05 -11.86897 -77.19006 2637 ft 210 kts 156°
2026-04-22 22:05 -11.88167 -77.18382 2544 ft 194 kts 155°
2026-04-22 22:05 -11.89329 -77.17810 2486 ft 178 kts 155°
2026-04-22 22:05 -11.90399 -77.17275 2331 ft 165 kts 155°
2026-04-22 22:06 -11.91399 -77.16771 2116 ft 155 kts 155°
2026-04-22 22:06 -11.92338 -77.16306 1910 ft 145 kts 156°
2026-04-22 22:06 -11.93219 -77.15871 1721 ft 137 kts 156°
2026-04-22 22:06 -11.94068 -77.15451 1544 ft 135 kts 156°
2026-04-22 22:07 -11.94916 -77.15030 1363 ft 135 kts 155°
2026-04-22 22:07 -11.95761 -77.14611 1183 ft 135 kts 156°
2026-04-22 22:07 -11.96607 -77.14195 1001 ft 135 kts 156°
2026-04-22 22:07 -11.97442 -77.13768 819 ft 134 kts 154°
2026-04-22 22:08 -11.98280 -77.13340 626 ft 134 kts 157°
2026-04-22 22:08 -11.99124 -77.12943 438 ft 133 kts 156°
2026-04-22 22:08 -11.99943 -77.12529 282 ft 132 kts 157°
2026-04-22 22:08 -12.00780 -77.12126 149 ft 133 kts 157°
2026-04-22 22:09 -12.01617 -77.11727 74 ft 130 kts 155°
2026-04-22 22:09 -12.02291 -77.11382 86 ft 73 kts 153°
2026-04-22 22:09 -12.02497 -77.11299 95 ft 13 kts 199°
2026-04-22 22:09 -12.02525 -77.11321 94 ft 0 kts 230°
2026-04-22 22:10 -12.02546 -77.11348 93 ft 13 kts 235°
2026-04-22 22:10 -12.02646 -77.11425 88 ft 20 kts 233°
2026-04-22 22:11 -12.02717 -77.11577 87 ft 15 kts 254°
2026-04-22 22:11 -12.02728 -77.11659 86 ft 7 kts 247°
2026-04-22 22:11 -12.02737 -77.11679 86 ft 0 kts 245°
2026-04-22 22:13 -12.00717 -77.12156 157 ft 133 kts 157°
2026-04-22 22:13 -12.01608 -77.11732 74 ft 130 kts 155°
2026-04-22 22:13 -12.02311 -77.11372 87 ft 69 kts 153°
2026-04-22 22:14 -12.01190 -77.11933 96 ft 133 kts 156°
2026-04-22 22:14 -12.02047 -77.11504 78 ft 108 kts 154°
2026-04-22 22:14 -12.01654 -77.11710 74 ft 129 kts 155°
2026-04-22 22:14 -12.02316 -77.11452 86 ft 70 kts 110°
2026-04-22 22:15 -12.01796 -77.11641 74 ft 124 kts 153°
2026-04-22 22:15 -12.02396 -77.11330 92 ft 55 kts 154°
2026-04-22 22:15 -12.02612 -77.11225 99 ft 23 kts 155°
2026-04-22 22:15 -12.02695 -77.11186 102 ft 16 kts 155°